TimeHST,TemperatureF,Dew PointF,Humidity,Sea Level PressureIn,VisibilityMPH,Wind Direction,Wind SpeedMPH,Gust SpeedMPH,PrecipitationIn,Events,Conditions,WindDirDegrees,DateUTC
12:34 AM,68.0,62.6,83,30.03,6.2,Calm,Calm,-,N/A,,Mostly Cloudy,0,2013-03-12 10:34:00
12:44 AM,68.0,62.6,83,30.03,6.2,Calm,Calm,-,N/A,,Mostly Cloudy,0,2013-03-12 10:44:00
12:57 AM,68.0,63.0,84,30.02,7.0,Calm,Calm,-,N/A,,Mostly Cloudy,0,2013-03-12 10:57:00
1:57 AM,69.8,66.9,91,30.01,7.0,Calm,Calm,-,N/A,,Mostly Cloudy,0,2013-03-12 11:57:00
2:57 AM,68.0,66.0,93,30.00,7.0,SW,5.8,-,N/A,,Mostly Cloudy,220,2013-03-12 12:57:00
3:57 AM,68.0,64.9,90,29.98,7.0,Calm,Calm,-,N/A,,Partly Cloudy,0,2013-03-12 13:57:00
4:57 AM,68.0,66.9,96,29.99,7.0,Calm,Calm,-,N/A,,Overcast,0,2013-03-12 14:57:00
5:57 AM,69.8,69.1,98,30.00,7.0,Calm,Calm,-,0.00,,Mostly Cloudy,0,2013-03-12 15:57:00
6:57 AM,69.8,68.0,94,30.02,7.0,Calm,Calm,-,N/A,,Mostly Cloudy,0,2013-03-12 16:57:00
7:57 AM,71.6,64.9,79,30.04,7.0,Calm,Calm,-,N/A,,Scattered Clouds,0,2013-03-12 17:57:00
8:57 AM,71.6,64.0,77,30.06,7.0,Calm,Calm,-,N/A,,Overcast,0,2013-03-12 18:57:00
9:57 AM,74.1,64.9,73,30.06,7.0,NNW,3.5,-,N/A,,Mostly Cloudy,330,2013-03-12 19:57:00
10:00 AM,-9999,-9999,N/A,-9999,-9999.0,North,-9999.0,-,N/A,,Unknown,0,2013-03-12 20:00:00
10:57 AM,74.1,64.0,71,30.06,7.0,NE,8.1,-,N/A,,Overcast,40,2013-03-12 20:57:00
11:57 AM,74.1,63.0,68,30.06,7.0,North,8.1,-,N/A,,Mostly Cloudy,10,2013-03-12 21:57:00
12:57 PM,73.4,63.0,70,30.04,7.0,North,8.1,-,0.00,,Overcast,10,2013-03-12 22:57:00
1:57 PM,74.5,62.1,65,30.03,7.0,North,4.6,-,0.00,Rain,Light Rain,350,2013-03-12 23:57:00
2:57 PM,74.5,62.1,65,30.00,7.0,NNE,8.1,-,0.00,,Overcast,20,2013-03-13 00:57:00
3:57 PM,74.5,60.1,61,30.00,7.0,NNE,5.8,-,N/A,,Mostly Cloudy,30,2013-03-13 01:57:00
4:57 PM,74.5,59.0,58,30.00,7.0,North,5.8,-,N/A,,Mostly Cloudy,360,2013-03-13 02:57:00
5:13 PM,-9999,-9999,N/A,-9999,-9999.0,North,-9999.0,-,N/A,,Unknown,0,2013-03-13 03:13:00
5:57 PM,76.1,59.0,55,30.01,7.0,North,4.6,-,N/A,,Scattered Clouds,10,2013-03-13 03:57:00
6:57 PM,75.2,59.0,57,30.03,7.0,North,5.8,-,N/A,,Partly Cloudy,10,2013-03-13 04:57:00
7:57 PM,70.9,59.0,66,30.06,7.0,North,6.9,-,N/A,,Mostly Cloudy,360,2013-03-13 05:57:00
8:57 PM,70.9,57.9,63,30.08,7.0,North,6.9,-,N/A,,Partly Cloudy,10,2013-03-13 06:57:00
9:57 PM,70.5,57.0,62,30.09,7.0,North,6.9,-,N/A,,Partly Cloudy,360,2013-03-13 07:57:00
10:57 PM,69.4,59.0,69,30.09,7.0,Calm,Calm,-,N/A,,Scattered Clouds,0,2013-03-13 08:57:00
11:57 PM,68.9,63.0,81,30.08,7.0,Calm,Calm,-,N/A,,Scattered Clouds,0,2013-03-13 09:57:00